Regional Weather Roundup
Issued by NWS

Home | Current Version | Previous Version | Graphics & Text | Print | Product List | Glossary On
Versions: 1 2 3 4 5 6 7 8 9 10 11 12 13 14 15 16 17 18 19 20 21 22 23 24 25 26 27 28 29 30 31 32 33 34 35 36 37 38 39 40 41 42 43 44 45 46 47 48 49 50
000
ASUS45 KBOI 150710
RWRID
WEATHER ROUNDUP FOR IDAHO
NATIONAL WEATHER SERVICE BOISE ID
100 AM MDT MON SEP 15 2014

NOTE: "FAIR" INDICATES FEW OR NO CLOUDS BELOW 12000 FEET
WITH NO SIGNIFICANT WEATHER AND/OR OBSTRUCTIONS TO VISIBILITY

IDZ012-014-150800-
SOUTHWEST IDAHO


CITY           SKY/WX    TMP DP  RH WIND       PRES   REMARKS
BOISE          CLEAR     66  33  29 SE8       29.96R
CALDWELL       CLEAR     55  36  47 CALM      29.97R
MOUNTAIN HOME  CLEAR     60  34  37 W6        29.96S
$$

IDZ016-017-150800-
SOUTHCENTRAL IDAHO


CITY           SKY/WX    TMP DP  RH WIND       PRES   REMARKS
BURLEY         PTCLDY    58  37  45 W3        30.03R
JEROME         CLEAR     57  39  51 E5        30.03R
TWIN FALLS     CLEAR     64  33  31 S10       30.04R
$$

IDZ019>023-150800-
SOUTHEAST IDAHO


CITY           SKY/WX    TMP DP  RH WIND       PRES   REMARKS
IDAHO FALLS    CLEAR     48  37  65 N5        30.08R
POCATELLO      CLEAR     55  36  48 N8        30.06R
REXBURG        CLEAR     49  35  58 NE5       30.09R
$$

IDZ006-010-011-018-031-032-150800-
CENTRAL IDAHO MOUNTAINS


CITY           SKY/WX    TMP DP  RH WIND       PRES   REMARKS
MCCALL         CLEAR     52  31  44 N7        30.09R
HAILEY         CLEAR     55  32  41 NW9       30.14R
STANLEY          N/A     43  24  47 CALM      30.21R
SALMON         CLEAR     46  30  53 CALM      30.08S
CHALLIS        CLEAR     52  27  38 SW6       30.11R
$$

IDZ002-004-006-007-026-150800-
NORTHERN IDAHO


CITY           SKY/WX    TMP DP  RH WIND       PRES   REMARKS
LEWISTON       CLEAR     61  29  29 CALM      29.95R
LOWELL           N/A     49  44  83 NW5       30.04R
COEUR D`ALENE  CLEAR     54  39  58 E9        30.00S
MULLAN PASS    CLEAR     53  27  36 SE9       30.16S
$$


USA.gov is the U.S. government's official web portal to all federal, state and local government web resources and services.